• In Belgium
  • List of Countries
  • For 7 days
  • Water Temperature
  • Satellite Maps
  • Weather Map
  • Weather Widgets
  • user-avatar
    Login

    Hourly Weather Boussu

    Today, 12 December, Tuesday

    Time Temperature Precipitation Wind Pressure Humidity
    00:00 -1°C° 0 mm 6 mps 741 mmHg 83%
    01:00 0°C° 0.1 mm 5 mps 742 mmHg 84%
    02:00 0°C° 0.1 mm 5 mps 743 mmHg 85%
    03:00 0°C° 0.1 mm 4 mps 744 mmHg 86%
    04:00 0°C° 0.1 mm 4 mps 746 mmHg 88%
    05:00 0°C° 0.1 mm 4 mps 747 mmHg 90%
    06:00 -1°C° 0 mm 4 mps 748 mmHg 92%
    07:00 -1°C° 0.1 mm 4 mps 749 mmHg 91%
    08:00 -1°C° 0.1 mm 4 mps 750 mmHg 91%
    09:00 0°C° 0.1 mm 4 mps 751 mmHg 90%
    10:00 0°C° 0.1 mm 4 mps 751 mmHg 87%
    11:00 +1°C° 0.1 mm 4 mps 752 mmHg 85%
    12:00 +1°C° 0 mm 4 mps 753 mmHg 82%
    13:00 +2°C° 0 mm 3 mps 753 mmHg 84%
    14:00 +2°C° 0 mm 3 mps 754 mmHg 85%
    15:00 +3°C° 0 mm 2 mps 754 mmHg 86%
    16:00 +1°C° 0 mm 3 mps 754 mmHg 88%
    17:00 0°C° 0 mm 3 mps 755 mmHg 89%
    18:00 0°C° 0 mm 3 mps 755 mmHg 91%
    19:00 0°C° 0 mm 3 mps 755 mmHg 90%
    20:00 -1°C° 0 mm 4 mps 756 mmHg 90%
    21:00 -1°C° 0 mm 4 mps 756 mmHg 90%
    22:00 -1°C° 0 mm 5 mps 756 mmHg 89%
    23:00 -1°C° 0 mm 5 mps 756 mmHg 89%

    Tomorrow, 13 December, Wednesday

    Time Temperature Precipitation Wind Pressure Humidity
    00:00 0°C° 0 mm 5 mps 755 mmHg 88%
    01:00 -1°C° 0 mm 6 mps 755 mmHg 88%
    02:00 -1°C° 0 mm 7 mps 754 mmHg 88%
    03:00 -1°C° 0 mm 7 mps 753 mmHg 88%
    04:00 0°C° 0.3 mm 8 mps 753 mmHg 87%
    05:00 0°C° 0.3 mm 8 mps 752 mmHg 87%
    06:00 +1°C° 0.3 mm 9 mps 751 mmHg 87%
    07:00 +1°C° 0.8 mm 9 mps 750 mmHg 87%
    08:00 +2°C° 0.8 mm 9 mps 750 mmHg 88%
    09:00 +2°C° 0.8 mm 9 mps 749 mmHg 89%
    10:00 +4°C° 0.8 mm 8 mps 749 mmHg 90%
    11:00 +4°C° 0.8 mm 8 mps 748 mmHg 91%
    12:00 +4°C° 0.8 mm 7 mps 747 mmHg 92%
    13:00 +5°C° 0.6 mm 7 mps 747 mmHg 92%
    14:00 +5°C° 0.6 mm 7 mps 746 mmHg 91%
    15:00 +5°C° 0.6 mm 7 mps 745 mmHg 91%
    16:00 +5°C° 0.6 mm 8 mps 744 mmHg 89%
    17:00 +6°C° 0.6 mm 9 mps 743 mmHg 87%
    18:00 +6°C° 0.6 mm 10 mps 741 mmHg 86%
    19:00 +5°C° 1.7 mm 9 mps 741 mmHg 82%
    20:00 +5°C° 1.7 mm 8 mps 741 mmHg 78%
    21:00 +4°C° 1.7 mm 6 mps 741 mmHg 74%
    22:00 +4°C° 0.7 mm 8 mps 741 mmHg 72%
    23:00 +3°C° 0.7 mm 10 mps 742 mmHg 70%

    Day after tomorrow, 14 December, Thursday

    Time Temperature Precipitation Wind Pressure Humidity
    00:00 +2°C° 0.7 mm 12 mps 742 mmHg 68%
    01:00 +2°C° 0.1 mm 10 mps 743 mmHg 67%
    02:00 +1°C° 0.1 mm 9 mps 744 mmHg 67%
    03:00 0°C° 0.1 mm 8 mps 745 mmHg 66%
    04:00 0°C° 0 mm 7 mps 745 mmHg 68%
    05:00 0°C° 0 mm 7 mps 746 mmHg 71%
    06:00 +1°C° 0 mm 6 mps 746 mmHg 73%
    07:00 +2°C° 0.5 mm 7 mps 746 mmHg 76%
    08:00 +2°C° 0.5 mm 7 mps 746 mmHg 78%
    09:00 +2°C° 0.5 mm 7 mps 746 mmHg 80%
    10:00 +3°C° 0.3 mm 7 mps 745 mmHg 80%
    11:00 +3°C° 0.3 mm 7 mps 744 mmHg 80%
    12:00 +4°C° 0.3 mm 7 mps 744 mmHg 80%
    13:00 +4°C° 1.7 mm 7 mps 742 mmHg 82%
    14:00 +4°C° 1.7 mm 7 mps 741 mmHg 83%
    15:00 +3°C° 1.7 mm 7 mps 740 mmHg 85%
    16:00 +3°C° 1 mm 7 mps 739 mmHg 85%
    17:00 +3°C° 1 mm 7 mps 738 mmHg 84%
    18:00 +3°C° 1 mm 7 mps 738 mmHg 84%
    19:00 +3°C° 0.1 mm 7 mps 739 mmHg 82%
    20:00 +2°C° 0.1 mm 6 mps 739 mmHg 80%
    21:00 +1°C° 0.1 mm 5 mps 740 mmHg 78%
    22:00 +1°C° 0 mm 5 mps 740 mmHg 79%
    23:00 +1°C° 0 mm 5 mps 741 mmHg 80%

    15 December, Friday

    Time Temperature Precipitation Wind Pressure Humidity
    00:00 0°C° 0 mm 4 mps 741 mmHg 81%
    01:00 0°C° 0.2 mm 4 mps 741 mmHg 83%
    02:00 +1°C° 0.2 mm 4 mps 741 mmHg 86%
    03:00 +1°C° 0.2 mm 4 mps 741 mmHg 89%
    04:00 +1°C° 0.9 mm 4 mps 741 mmHg 90%
    05:00 +1°C° 0.9 mm 4 mps 741 mmHg 90%
    06:00 +1°C° 0.9 mm 4 mps 741 mmHg 91%
    07:00 +2°C° 0.5 mm 3 mps 741 mmHg 91%
    08:00 +2°C° 0.5 mm 3 mps 742 mmHg 92%
    09:00 +2°C° 0.5 mm 3 mps 742 mmHg 92%
    10:00 +3°C° 0.1 mm 3 mps 743 mmHg 89%
    11:00 +3°C° 0.1 mm 3 mps 743 mmHg 86%
    12:00 +4°C° 0.1 mm 3 mps 744 mmHg 82%
    13:00 +5°C° 0 mm 2 mps 744 mmHg 83%
    14:00 +4°C° 0 mm 2 mps 745 mmHg 83%
    15:00 +4°C° 0 mm 2 mps 746 mmHg 84%
    16:00 +3°C° 0 mm 2 mps 747 mmHg 85%
    17:00 +3°C° 0 mm 2 mps 747 mmHg 86%
    18:00 +2°C° 0 mm 2 mps 748 mmHg 88%
    19:00 +2°C° 0 mm 2 mps 749 mmHg 88%
    20:00 +1°C° 0 mm 3 mps 750 mmHg 88%
    21:00 +1°C° 0 mm 3 mps 751 mmHg 89%
    22:00 +1°C° 0 mm 3 mps 751 mmHg 89%
    23:00 +1°C° 0 mm 3 mps 751 mmHg 90%

    16 December, Saturday

    Time Temperature Precipitation Wind Pressure Humidity
    00:00 +1°C° 0 mm 3 mps 752 mmHg 91%
    01:00 +1°C° 0.1 mm 3 mps 752 mmHg 92%
    02:00 0°C° 0.1 mm 4 mps 752 mmHg 93%
    03:00 +1°C° 0.1 mm 4 mps 753 mmHg 94%
    04:00 +1°C° 0.2 mm 4 mps 753 mmHg 93%
    05:00 +1°C° 0.2 mm 4 mps 753 mmHg 92%
    06:00 +1°C° 0.2 mm 4 mps 754 mmHg 91%
    07:00 +1°C° 0.1 mm 4 mps 754 mmHg 90%
    08:00 +1°C° 0.1 mm 4 mps 755 mmHg 88%
    09:00 0°C° 0.1 mm 4 mps 755 mmHg 86%
    10:00 +1°C° 0 mm 4 mps 755 mmHg 82%
    11:00 +3°C° 0 mm 4 mps 756 mmHg 79%
    12:00 +2°C° 0 mm 5 mps 756 mmHg 75%
    13:00 +3°C° 0.1 mm 4 mps 756 mmHg 77%
    14:00 +3°C° 0.1 mm 4 mps 757 mmHg 79%
    15:00 +2°C° 0.1 mm 3 mps 757 mmHg 81%
    16:00 +2°C° 0 mm 3 mps 758 mmHg 83%
    17:00 +1°C° 0 mm 3 mps 758 mmHg 85%
    18:00 0°C° 0 mm 3 mps 759 mmHg 87%
    19:00 0°C° 0.1 mm 3 mps 760 mmHg 88%
    20:00 0°C° 0.1 mm 3 mps 760 mmHg 89%
    21:00 0°C° 0.1 mm 3 mps 761 mmHg 90%
    22:00 0°C° 0.1 mm 3 mps 761 mmHg 90%
    23:00 0°C° 0.1 mm 3 mps 762 mmHg 91%

    17 December, Sunday

    Time Temperature Precipitation Wind Pressure Humidity
    00:00 0°C° 0.1 mm 3 mps 762 mmHg 91%
    01:00 0°C° 0.1 mm 3 mps 762 mmHg 91%
    02:00 0°C° 0.1 mm 3 mps 763 mmHg 91%
    03:00 0°C° 0.1 mm 3 mps 763 mmHg 91%
    04:00 0°C° 0 mm 3 mps 763 mmHg 91%
    05:00 0°C° 0 mm 3 mps 764 mmHg 91%
    06:00 -1°C° 0 mm 3 mps 764 mmHg 91%
    07:00 0°C° 0 mm 3 mps 765 mmHg 89%
    08:00 0°C° 0 mm 3 mps 765 mmHg 88%
    09:00 0°C° 0 mm 3 mps 766 mmHg 86%
    10:00 +1°C° 0 mm 3 mps 766 mmHg 82%
    11:00 +2°C° 0 mm 3 mps 766 mmHg 79%
    12:00 +3°C° 0 mm 3 mps 766 mmHg 75%
    13:00 +3°C° 0 mm 3 mps 766 mmHg 76%
    14:00 +2°C° 0 mm 3 mps 766 mmHg 78%
    15:00 +2°C° 0 mm 3 mps 766 mmHg 80%
    16:00 +1°C° 0 mm 3 mps 766 mmHg 81%
    17:00 +1°C° 0 mm 3 mps 766 mmHg 83%
    18:00 0°C° 0 mm 3 mps 767 mmHg 85%
    19:00 -1°C° 0 mm 4 mps 767 mmHg 84%
    20:00 -1°C° 0 mm 4 mps 767 mmHg 84%
    21:00 -1°C° 0 mm 4 mps 767 mmHg 84%
    22:00 -1°C° 0 mm 4 mps 767 mmHg 83%
    23:00 -1°C° 0 mm 4 mps 767 mmHg 83%
    Show more